TimeCDT,TemperatureF,Dew PointF,Humidity,Sea Level PressureIn,VisibilityMPH,Wind Direction,Wind SpeedMPH,Gust SpeedMPH,PrecipitationIn,Events,Conditions,WindDirDegrees,DateUTC
12:54 AM,43.0,41.0,93,30.01,10.0,West,4.6,-,N/A,,Partly Cloudy,270,2012-10-10 05:54:00
1:54 AM,42.1,39.0,89,30.03,10.0,West,5.8,-,N/A,,Clear,280,2012-10-10 06:54:00
2:54 AM,41.0,37.0,86,30.04,10.0,WNW,6.9,-,N/A,,Clear,300,2012-10-10 07:54:00
3:54 AM,39.0,35.1,86,30.05,10.0,WNW,5.8,-,N/A,,Clear,290,2012-10-10 08:54:00
4:54 AM,37.0,34.0,89,30.07,10.0,West,5.8,-,N/A,,Clear,270,2012-10-10 09:54:00
5:54 AM,35.1,33.1,92,30.11,10.0,West,4.6,-,N/A,,Clear,270,2012-10-10 10:54:00
6:54 AM,34.0,32.0,92,30.13,10.0,West,5.8,-,N/A,,Clear,280,2012-10-10 11:54:00
7:54 AM,35.1,30.9,85,30.17,10.0,WNW,6.9,-,N/A,,Clear,300,2012-10-10 12:54:00
8:54 AM,39.0,30.0,70,30.19,10.0,NW,9.2,-,N/A,,Clear,310,2012-10-10 13:54:00
9:54 AM,43.0,30.0,60,30.21,10.0,NW,12.7,19.6,N/A,,Clear,310,2012-10-10 14:54:00
10:54 AM,46.0,-9999,N/A,30.23,-9999.0,North,-9999.0,-,N/A,,Clear,0,2012-10-10 15:54:00
11:54 AM,48.9,28.0,44,30.23,10.0,NW,13.8,19.6,N/A,,Clear,310,2012-10-10 16:54:00
12:54 PM,52.0,30.0,43,30.22,10.0,West,16.1,24.2,N/A,,Scattered Clouds,270,2012-10-10 17:54:00
1:54 PM,52.0,28.0,40,30.20,10.0,WNW,11.5,18.4,N/A,,Scattered Clouds,300,2012-10-10 18:54:00
2:54 PM,54.0,26.1,34,30.19,10.0,West,16.1,25.3,N/A,,Scattered Clouds,280,2012-10-10 19:54:00
3:54 PM,54.0,27.0,35,30.18,10.0,NW,9.2,-,N/A,,Clear,310,2012-10-10 20:54:00
4:54 PM,54.0,26.1,34,30.18,10.0,West,13.8,20.7,N/A,,Clear,280,2012-10-10 21:54:00
5:54 PM,52.0,27.0,38,30.18,10.0,West,8.1,-,N/A,,Clear,280,2012-10-10 22:54:00
6:54 PM,48.0,28.9,48,30.19,10.0,Calm,Calm,-,N/A,,Clear,0,2012-10-10 23:54:00
7:54 PM,43.0,30.9,62,30.21,10.0,Calm,Calm,-,N/A,,Clear,0,2012-10-11 00:54:00
8:54 PM,39.9,33.1,77,30.22,10.0,Calm,Calm,-,N/A,,Clear,0,2012-10-11 01:54:00
9:54 PM,41.0,32.0,70,30.21,10.0,South,3.5,-,N/A,,Clear,190,2012-10-11 02:54:00
10:54 PM,41.0,30.9,67,30.21,10.0,Calm,Calm,-,N/A,,Clear,0,2012-10-11 03:54:00
11:54 PM,39.9,30.9,70,30.20,10.0,South,3.5,-,N/A,,Clear,180,2012-10-11 04:54:00